QPF
0.24 0.19 0.15 0.11 0.04 0.07 0.22 0.21 0.50 1.06 1.27 1.79 1.03 0.45 0.31 0.29 0.22 0.21 0.15 0.09 0.05 0.04 0.03 0.05 0.06 0.09 0.08 0.16 0.28 0.40 0.41 0.36 0.26 0.08 0.11 0.09 0.02 0.00 0.00 0.00 0.00 0.00 0.00
0.65 0.54 0.20 0.05 0.05 0.13 0.22 0.34 0.33 0.49 0.72 0.76 0.64 0.85 0.82 0.36 0.16 0.12 0.08 0.12 0.16 0.17 0.14 0.15 0.13 0.16 0.14 0.08 0.04 0.01 0.02 0.05 0.06 0.03 0.04 0.05 0.03 0.01 0.00 0.00 0.00 0.00 0.00
0.44 0.55 0.19 0.07 0.05 0.04 0.17 0.41 0.39 0.30 0.28 0.46 0.37 0.33 0.47 0.27 0.10 0.12 0.08 0.03 0.06 0.11 0.13 0.14 0.12 0.17 0.16 0.07 0.05 0.02 0.03 0.04 0.05 0.04 0.01 0.02 0.01 0.00 0.00 0.00 0.00 0.00 0.00
0.13 0.06 0.06 0.06 0.07 0.02 0.04 0.20 0.25 0.25 0.27 0.27 0.31 0.33 0.27 0.15 0.09 0.09 0.10 0.09 0.06 0.07 0.09 0.10 0.07 0.07 0.08 0.05 0.04 0.03 0.03 0.03 0.02 0.02 0.04 0.05 0.03 0.02 0.03 0.04 0.01 0.00 0.00
0.04 0.03 0.05 0.11 0.15 0.11 0.10 0.10 0.14 0.17 0.18 0.18 0.12 0.11 0.14 0.15 0.14 0.15 0.12 0.08 0.05 0.05 0.06 0.07 0.06 0.07 0.06 0.04 0.03 0.03 0.05 0.06 0.07 0.07 0.08 0.08 0.06 0.02 0.01 0.01 0.01 0.00 0.00
0.00 0.00 0.01 0.02 0.10 0.24 0.26 0.17 0.11 0.10 0.07 0.08 0.08 0.06 0.05 0.04 0.04 0.03 0.03 0.04 0.04 0.02 0.01 0.01 0.02 0.03 0.02 0.04 0.06 0.05 0.05 0.05 0.12 0.22 0.18 0.14 0.13 0.10 0.03 0.00 0.00 0.00 0.00
0.00 0.00 0.00 0.00 0.00 0.00 0.02 0.03 0.04 0.03 0.03 0.03 0.03 0.01 0.01 0.01 0.01 0.00 0.00 0.00 0.00 0.00 0.00 0.00 0.00 0.00 0.00 0.00 0.01 0.01 0.02 0.04 0.06 0.06 0.09 0.11 0.09 0.07 0.02 0.00 0.00 0.00 0.00
0.00 0.00 0.00 0.00 0.00 0.00 0.00 0.00 0.00 0.00 0.00 0.00 0.00 0.00 0.00 0.00 0.00 0.00 0.00 0.00 0.00 0.00 0.00 0.00 0.00 0.00 0.00 0.00 0.00 0.00 0.02 0.05 0.07 0.06 0.05 0.06 0.07 0.06 0.04 0.02 0.01 0.01 0.01
0.00 0.00 0.00 0.00 0.00 0.00 0.00 0.00 0.00 0.00 0.00 0.00 0.00 0.00 0.00 0.00 0.00 0.00 0.00 0.00 0.00 0.00 0.00 0.00 0.00 0.00 0.00 0.00 0.00 0.00 0.01 0.02 0.05 0.07 0.06 0.06 0.05 0.05 0.02 0.02 0.03 0.07 0.06
0.00 0.00 0.00 0.00 0.00 0.00 0.00 0.00 0.00 0.00 0.00 0.00 0.00 0.00 0.00 0.00 0.00 0.00 0.00 0.00 0.00 0.00 0.00 0.00 0.00 0.00 0.00 0.00 0.00 0.00 0.00 0.00 0.00 0.01 0.02 0.02 0.02 0.03 0.04 0.04 0.05 0.10 0.13
0.00 0.00 0.00 0.00 0.00 0.00 0.00 0.00 0.00 0.00 0.00 0.00 0.00 0.00 0.00 0.00 0.00 0.00 0.00 0.00 0.00 0.00 0.00 0.00 0.00 0.00 0.00 0.00 0.00 0.00 0.00 0.00 0.00 0.00 0.00 0.00 0.01 0.02 0.03 0.05 0.07 0.10 0.14
0.00 0.00 0.00 0.00 0.00 0.00 0.00 0.00 0.00 0.00 0.00 0.00 0.00 0.00 0.00 0.00 0.00 0.00 0.00 0.00 0.00 0.00 0.00 0.00 0.00 0.00 0.00 0.00 0.00 0.00 0.00 0.00 0.00 0.00 0.00 0.00 0.01 0.03 0.05 0.06 0.08 0.12 0.15
0.00 0.00 0.00 0.00 0.00 0.00 0.00 0.00 0.00 0.00 0.00 0.00 0.00 0.00 0.00 0.00 0.00 0.00 0.00 0.00 0.00 0.00 0.00 0.00 0.00 0.00 0.00 0.00 0.00 0.00 0.00 0.00 0.00 0.00 0.00 0.00 0.01 0.02 0.03 0.04 0.06 0.08 0.11
0.00 0.00 0.00 0.00 0.00 0.00 0.00 0.00 0.00 0.00 0.00 0.00 0.00 0.00 0.00 0.00 0.00 0.00 0.00 0.00 0.00 0.00 0.00 0.00 0.00 0.00 0.00 0.00 0.00 0.00 0.00 0.00 0.00 0.00 0.00 0.00 0.00 0.00 0.01 0.02 0.03 0.05 0.07
0.00 0.00 0.00 0.00 0.00 0.00 0.00 0.00 0.00 0.00 0.00 0.00 0.00 0.00 0.00 0.00 0.00 0.00 0.00 0.00 0.00 0.00 0.00 0.00 0.00 0.00 0.00 0.00 0.00 0.00 0.00 0.00 0.00 0.00 0.00 0.00 0.00 0.00 0.00 0.00 0.01 0.02 0.04
0.00 0.00 0.00 0.00 0.00 0.00 0.00 0.00 0.00 0.00 0.00 0.00 0.00 0.00 0.00 0.00 0.00 0.00 0.00 0.00 0.00 0.00 0.00 0.00 0.00 0.00 0.00 0.00 0.00 0.00 0.00 0.00 0.00 0.00 0.00 0.00 0.00 0.00 0.00 0.00 0.00 0.00 0.01
0.00 0.00 0.00 0.00 0.00 0.00 0.00 0.00 0.00 0.00 0.00 0.01 0.01 0.00 0.00 0.00 0.00 0.00 0.00 0.00 0.00 0.00 0.00 0.00 0.00 0.00 0.00 0.00 0.00 0.00 0.00 0.00 0.00 0.00 0.00 0.00 0.00 0.00 0.00 0.00 0.00 0.00 0.00
0.00 0.00 0.00 0.00 0.00 0.00 0.00 0.00 0.00 0.00 0.00 0.00 0.00 0.00 0.00 0.00 0.00 0.00 0.00 0.00 0.00 0.00 0.00 0.00 0.00 0.00 0.00 0.00 0.00 0.00 0.01 0.00 0.00 0.00 0.00 0.00 0.00 0.00 0.00 0.00 0.00 0.00 0.00
0.00 0.00 0.00 0.00 0.00 0.00 0.00 0.00 0.00 0.00 0.00 0.00 0.00 0.00 0.00 0.00 0.00 0.00 0.00 0.00 0.00 0.00 0.00 0.00 0.00 0.00 0.00 0.00 0.00 0.00 0.01 0.00 0.00 0.00 0.00 0.00 0.00 0.00 0.00 0.00 0.00 0.00 0.00
0.00 0.00 0.00 0.00 0.00 0.00 0.00 0.00 0.00 0.00 0.00 0.00 0.00 0.00 0.00 0.00 0.00 0.00 0.00 0.00 0.00 0.00 0.00 0.00 0.00 0.00 0.00 0.00 0.00 0.00 0.00 0.00 0.00 0.00 0.00 0.00 0.00 0.00 0.00 0.00 0.00 0.00 0.00
0.00 0.00 0.00 0.00 0.00 0.00 0.00 0.00 0.00 0.00 0.00 0.00 0.00 0.00 0.00 0.00 0.00 0.00 0.00 0.00 0.00 0.00 0.00 0.00 0.00 0.00 0.00 0.00 0.00 0.00 0.00 0.00 0.00 0.00 0.00 0.00 0.01 0.00 0.00 0.00 0.00 0.00 0.00
0.00 0.00 0.00 0.00 0.00 0.00 0.00 0.00 0.00 0.00 0.00 0.00 0.00 0.00 0.00 0.00 0.01 0.00 0.00 0.00 0.00 0.00 0.00 0.00 0.00 0.00 0.00 0.00 0.01 0.00 0.00 0.00 0.00 0.00 0.00 0.00 0.00 0.00 0.00 0.00 0.00 0.00 0.00
0.00 0.00 0.00 0.00 0.00 0.00 0.00 0.00 0.00 0.00 0.00 0.00 0.00 0.00 0.00 0.00 0.00 0.00 0.00 0.00 0.00 0.00 0.00 0.00 0.00 0.00 0.00 0.00 0.00 0.00 0.00 0.00 0.00 0.00 0.00 0.00 0.00 0.00 0.00 0.00 0.00 0.00 0.00
0.00 0.00 0.00 0.00 0.00 0.00 0.00 0.00 0.00 0.00 0.00 0.00 0.00 0.00 0.00 0.00 0.00 0.00 0.00 0.01 0.00 0.00 0.00 0.00 0.00 0.00 0.00 0.00 0.00 0.00 0.00 0.00 0.00 0.00 0.00 0.00 0.00 0.00 0.00 0.00 0.00 0.00 0.00
0.00 0.00 0.00 0.00 0.00 0.00 0.00 0.00 0.00 0.00 0.00 0.01 0.00 0.00 0.00 0.00 0.00 0.00 0.00 0.00 0.00 0.00 0.00 0.00 0.00 0.00 0.00 0.00 0.00 0.00 0.00 0.00 0.00 0.00 0.00 0.00 0.00 0.00 0.00 0.00 0.00 0.00 0.00
0.00 0.00 0.01 0.01 0.01 0.01 0.01 0.01 0.01 0.02 0.01 0.01 0.01 0.01 0.01 0.00 0.00 0.00 0.00 0.00 0.00 0.00 0.00 0.00 0.00 0.00 0.00 0.00 0.00 0.00 0.00 0.00 0.00 0.00 0.00 0.00 0.00 0.00 0.00 0.00 0.00 0.00 0.00
MSLP
1011.33 1010.31 1009.17 1008.05 1005.90 1005.74 1005.17 1004.39 1004.56 1005.52 1004.32 1004.11 1003.08 1004.06 1005.29 1005.18 1005.54 1005.48 1006.39 1006.34 1006.74 1007.17 1007.48 1007.82 1008.23 1008.37 1008.52 1009.06 1009.60 1009.69 1009.57 1010.04 1010.90 1009.93 1009.94 1009.75 1009.92 1009.60 1009.70 1009.95 1010.20 1010.59 1010.79
1012.39 1011.29 1010.54 1008.95 1007.01 1006.46 1005.96 1005.98 1006.08 1007.32 1006.22 1005.84 1005.84 1005.66 1005.78 1007.83 1006.27 1006.72 1007.20 1007.71 1007.45 1007.83 1008.15 1007.90 1008.24 1007.84 1008.39 1008.61 1009.26 1009.47 1009.61 1009.72 1009.90 1009.62 1009.39 1009.50 1009.63 1009.41 1008.97 1009.16 1009.50 1009.66 1009.92
1013.87 1012.06 1011.88 1009.25 1007.16 1007.42 1008.02 1008.00 1007.57 1008.94 1009.01 1006.22 1006.96 1008.19 1008.46 1007.63 1006.23 1008.42 1008.96 1008.80 1009.26 1009.60 1009.80 1009.87 1010.10 1009.78 1009.72 1009.69 1009.22 1009.00 1008.90 1008.97 1009.16 1009.46 1008.79 1008.59 1008.47 1008.60 1008.91 1008.66 1008.84 1009.02 1008.95
1015.01 1013.36 1011.06 1010.36 1010.12 1009.62 1009.53 1009.56 1008.09 1010.41 1009.90 1010.02 1010.13 1010.41 1010.29 1009.71 1009.11 1009.27 1009.12 1010.14 1010.88 1011.10 1011.08 1011.09 1011.58 1011.56 1011.68 1011.08 1010.50 1010.07 1009.41 1008.56 1008.53 1008.44 1008.41 1008.19 1007.96 1007.82 1007.87 1008.02 1008.44 1008.25 1008.40
1015.36 1013.97 1013.29 1012.70 1012.15 1011.21 1009.57 1010.85 1012.05 1012.04 1012.10 1012.94 1011.65 1011.43 1011.11 1010.89 1011.40 1011.18 1011.64 1012.12 1012.22 1011.82 1011.87 1012.14 1012.44 1012.68 1012.67 1012.14 1011.55 1011.16 1010.42 1009.64 1008.45 1007.95 1007.78 1007.55 1007.41 1007.61 1007.21 1007.39 1007.51 1007.68 1007.80
1016.78 1015.82 1015.20 1014.20 1013.49 1012.91 1013.03 1012.06 1012.95 1014.48 1014.76 1014.26 1014.41 1013.79 1013.01 1013.51 1013.72 1013.40 1012.86 1012.96 1013.33 1013.02 1013.01 1013.08 1013.03 1013.16 1012.82 1012.52 1012.17 1012.11 1011.78 1011.15 1009.97 1009.22 1008.66 1007.60 1006.83 1006.14 1006.82 1007.03 1007.25 1007.51 1007.75
1018.41 1017.64 1017.14 1016.49 1015.61 1014.78 1013.22 1013.75 1015.35 1016.03 1016.70 1016.68 1015.36 1014.58 1015.27 1015.30 1015.09 1014.51 1014.27 1014.52 1014.71 1014.76 1014.40 1014.01 1013.87 1013.76 1013.42 1012.96 1012.57 1012.61 1012.37 1012.19 1011.75 1011.22 1010.23 1010.52 1009.80 1009.91 1009.03 1007.52 1007.00 1007.04 1006.90
1019.53 1018.83 1018.19 1017.32 1016.27 1015.98 1016.36 1015.89 1016.15 1016.80 1017.00 1016.54 1015.89 1015.99 1016.34 1016.10 1015.65 1015.26 1015.31 1015.64 1015.78 1015.75 1015.82 1015.57 1015.31 1014.91 1014.65 1014.00 1013.35 1012.81 1012.77 1012.91 1012.40 1012.07 1011.64 1011.96 1011.48 1010.77 1010.23 1009.62 1008.74 1007.95 1006.91
1020.76 1020.41 1019.74 1018.94 1018.43 1018.45 1017.91 1017.48 1017.73 1018.24 1017.63 1017.51 1017.97 1018.29 1018.15 1017.63 1017.12 1016.66 1016.93 1017.00 1017.28 1017.15 1016.89 1016.66 1015.77 1015.71 1015.58 1014.89 1014.03 1013.69 1013.43 1013.40 1013.33 1012.79 1012.49 1012.25 1011.75 1011.08 1010.91 1009.16 1009.15 1008.52 1007.68
1022.55 1022.02 1021.39 1020.79 1020.60 1019.92 1019.76 1019.97 1020.42 1019.91 1019.70 1020.04 1020.47 1020.36 1019.81 1019.08 1018.74 1018.63 1018.71 1018.23 1017.95 1017.94 1017.53 1016.74 1016.34 1016.31 1016.21 1015.26 1014.65 1014.52 1014.45 1014.39 1014.00 1013.12 1012.89 1012.47 1012.53 1011.66 1011.33 1010.28 1010.31 1009.49 1008.76
1023.53 1022.75 1022.04 1021.29 1021.40 1021.72 1021.77 1021.65 1021.39 1021.56 1021.94 1021.71 1021.69 1020.98 1021.15 1020.59 1019.92 1019.74 1019.64 1019.39 1018.96 1019.05 1018.30 1017.67 1017.12 1016.82 1016.68 1015.95 1015.58 1015.37 1015.37 1014.88 1014.17 1014.16 1013.39 1013.03 1012.98 1012.28 1011.78 1010.91 1010.80 1010.37 1009.60
1024.05 1023.50 1023.21 1023.12 1023.02 1023.20 1023.47 1023.88 1024.02 1023.49 1023.28 1022.78 1022.48 1022.56 1022.38 1022.30 1021.90 1021.56 1021.24 1020.94 1020.17 1019.53 1019.15 1018.14 1017.61 1017.30 1016.81 1016.74 1016.14 1015.94 1015.59 1015.05 1014.87 1014.76 1014.47 1014.00 1013.33 1013.06 1012.63 1011.78 1011.19 1010.90 1010.55
1024.77 1024.44 1024.39 1024.35 1024.42 1024.44 1024.57 1024.68 1024.42 1024.46 1024.38 1024.25 1024.13 1024.08 1023.69 1023.40 1023.55 1023.41 1022.45 1021.31 1020.63 1019.90 1019.52 1019.07 1018.54 1018.01 1017.51 1017.09 1017.00 1016.72 1016.32 1016.08 1016.03 1015.48 1015.18 1014.76 1014.27 1013.84 1013.07 1012.03 1011.52 1011.20 1011.02
1026.40 1026.35 1026.12 1025.94 1025.94 1026.11 1025.84 1025.88 1025.77 1025.77 1025.91 1025.95 1025.98 1025.83 1025.26 1024.94 1024.21 1023.29 1022.42 1021.54 1020.70 1020.34 1020.18 1019.92 1019.16 1018.75 1018.03 1017.84 1017.81 1017.61 1017.41 1017.18 1016.65 1016.00 1015.82 1015.42 1014.78 1014.32 1013.76 1012.77 1012.26 1011.74 1011.68
1027.23 1027.07 1026.89 1026.63 1026.46 1026.27 1026.21 1026.21 1026.44 1026.53 1026.54 1026.49 1026.19 1025.92 1025.64 1025.46 1024.59 1023.95 1023.14 1022.40 1021.73 1021.22 1020.87 1020.33 1019.83 1019.69 1019.43 1019.23 1018.97 1018.75 1018.27 1017.58 1017.03 1016.62 1016.62 1016.33 1015.88 1015.19 1014.41 1013.53 1012.94 1012.66 1012.36
1028.00 1027.77 1027.63 1027.51 1027.30 1026.98 1026.77 1026.47 1026.09 1026.17 1025.95 1025.81 1025.79 1025.97 1026.12 1025.41 1024.46 1023.60 1022.97 1022.37 1021.95 1021.75 1021.71 1021.79 1021.73 1021.60 1021.17 1020.82 1020.48 1020.01 1019.38 1018.77 1018.09 1017.46 1017.16 1016.76 1016.28 1015.78 1015.00 1014.00 1013.50 1013.30 1013.00
1028.60 1028.21 1027.92 1027.73 1027.63 1027.41 1027.08 1026.88 1026.64 1025.94 1025.64 1025.79 1025.70 1025.41 1025.07 1024.45 1023.70 1023.42 1023.60 1023.69 1023.48 1023.27 1023.42 1023.37 1023.26 1023.05 1022.72 1022.32 1021.68 1021.03 1020.25 1019.56 1018.92 1018.16 1017.76 1017.27 1016.71 1016.08 1015.40 1014.78 1014.02 1013.72 1013.49
1029.18 1028.75 1028.63 1028.52 1028.30 1028.10 1027.90 1027.68 1027.49 1027.27 1027.12 1026.67 1026.35 1026.00 1025.62 1025.09 1024.61 1024.65 1024.92 1024.95 1024.95 1024.73 1024.73 1024.55 1024.29 1023.99 1023.58 1023.15 1022.56 1021.89 1021.03 1020.43 1019.82 1019.10 1018.42 1017.85 1017.17 1016.50 1015.89 1015.33 1014.71 1014.28 1014.02
1029.67 1029.33 1029.13 1028.96 1028.66 1028.35 1028.33 1028.36 1028.55 1028.40 1028.15 1027.90 1027.34 1027.18 1026.89 1025.80 1025.34 1025.22 1025.47 1025.84 1026.19 1026.04 1025.66 1025.27 1024.73 1024.59 1024.31 1023.84 1023.34 1022.81 1022.14 1021.62 1020.96 1020.18 1019.38 1018.61 1017.75 1016.92 1016.29 1015.77 1015.43 1014.97 1014.67
1029.94 1029.53 1029.20 1029.00 1028.76 1028.76 1028.77 1028.99 1028.88 1028.68 1028.48 1028.15 1027.83 1027.45 1026.93 1026.55 1026.20 1026.25 1025.98 1026.05 1026.23 1026.13 1025.89 1025.73 1025.42 1025.14 1024.85 1024.49 1023.93 1023.45 1022.84 1022.33 1021.77 1021.13 1020.52 1019.67 1018.51 1017.61 1016.96 1016.53 1016.20 1015.89 1015.58
1029.97 1029.61 1029.35 1029.20 1029.14 1029.06 1029.15 1029.09 1028.91 1028.68 1028.39 1028.04 1027.65 1026.90 1026.71 1026.45 1026.18 1026.24 1026.03 1025.97 1025.96 1025.90 1025.78 1025.72 1025.67 1025.51 1025.24 1024.83 1024.48 1024.36 1023.96 1023.55 1022.99 1022.33 1021.44 1020.44 1019.49 1018.53 1017.76 1017.27 1016.99 1016.76 1016.44
1030.03 1029.90 1029.59 1029.54 1029.32 1029.34 1029.22 1028.86 1028.83 1028.88 1028.62 1028.30 1027.82 1027.18 1026.79 1026.49 1026.28 1026.19 1025.99 1025.96 1026.17 1025.79 1025.53 1025.62 1025.94 1025.57 1025.29 1025.07 1024.82 1024.80 1024.55 1024.25 1023.79 1023.27 1022.51 1021.61 1020.49 1019.40 1018.58 1018.18 1017.81 1017.54 1017.26
1030.12 1030.03 1029.90 1029.60 1029.33 1029.06 1029.03 1028.78 1028.74 1028.78 1028.57 1028.12 1027.58 1027.27 1026.92 1026.67 1026.39 1026.16 1025.94 1025.81 1025.71 1025.70 1025.47 1025.49 1025.67 1025.60 1025.36 1025.30 1024.99 1024.99 1024.90 1024.68 1024.45 1024.10 1023.41 1022.37 1021.39 1020.32 1019.58 1019.15 1018.78 1018.42 1018.12
1030.31 1030.07 1029.82 1029.52 1029.31 1029.06 1029.14 1029.04 1028.49 1028.05 1027.76 1027.56 1027.27 1026.91 1026.56 1026.22 1026.02 1025.86 1025.76 1025.41 1025.40 1025.60 1025.52 1025.27 1025.23 1025.18 1025.23 1025.44 1025.11 1024.82 1024.66 1024.54 1024.22 1023.89 1023.47 1022.64 1021.86 1020.96 1020.21 1019.75 1019.53 1019.33 1018.96
1030.45 1030.23 1029.91 1029.58 1029.24 1029.01 1028.84 1028.58 1028.27 1027.93 1027.65 1027.39 1027.18 1026.66 1026.17 1025.87 1025.67 1025.59 1025.60 1025.03 1024.80 1025.25 1025.13 1025.02 1024.89 1024.84 1025.00 1025.16 1025.02 1024.82 1024.67 1024.39 1024.01 1023.55 1022.99 1022.38 1021.90 1021.45 1020.89 1020.59 1020.15 1019.76 1019.64
1030.91 1030.73 1030.45 1030.01 1029.68 1029.43 1029.11 1028.77 1028.44 1028.06 1027.67 1027.34 1026.97 1026.51 1026.14 1025.77 1025.29 1025.11 1025.27 1024.90 1024.72 1024.61 1024.57 1024.53 1024.26 1024.30 1024.52 1024.72 1024.86 1024.75 1024.60 1024.31 1023.93 1023.46 1023.18 1022.71 1022.47 1022.09 1021.72 1021.29 1020.82 1020.44 1020.26
Thickness
5411 5412 5422 5441 5475 5486 5511 5545 5562 5567 5581 5590 5586 5599 5603 5608 5613 5620 5619 5625 5627 5629 5629 5629 5628 5629 5631 5625 5618 5618 5625 5618 5604 5623 5620 5621 5622 5627 5628 5624 5620 5617 5619
5413 5418 5428 5451 5473 5487 5510 5533 5544 5539 5551 5571 5566 5583 5594 5581 5593 5598 5599 5603 5606 5609 5611 5616 5617 5623 5620 5619 5614 5617 5615 5614 5612 5613 5616 5615 5615 5618 5623 5622 5620 5617 5615
5420 5420 5423 5454 5480 5488 5501 5517 5531 5530 5535 5564 5564 5561 5570 5551 5581 5571 5571 5581 5581 5583 5586 5589 5588 5593 5592 5595 5606 5611 5613 5612 5611 5605 5611 5613 5614 5614 5612 5616 5616 5614 5612
5425 5438 5456 5455 5467 5481 5495 5503 5526 5513 5521 5524 5529 5531 5539 5542 5552 5558 5563 5560 5557 5559 5564 5567 5565 5566 5566 5572 5581 5586 5596 5606 5606 5604 5604 5607 5610 5611 5609 5605 5604 5609 5609
5431 5440 5446 5454 5460 5474 5497 5489 5484 5490 5498 5494 5505 5513 5523 5526 5525 5534 5536 5535 5536 5542 5546 5547 5546 5546 5547 5551 5559 5563 5571 5584 5600 5606 5605 5604 5605 5601 5607 5606 5605 5604 5604
5424 5431 5437 5446 5458 5469 5475 5489 5487 5475 5477 5477 5479 5485 5497 5498 5501 5505 5515 5518 5519 5522 5526 5528 5530 5529 5533 5537 5541 5541 5545 5553 5567 5575 5590 5600 5606 5606 5600 5598 5596 5594 5593
5413 5418 5422 5430 5443 5457 5477 5475 5462 5456 5453 5453 5463 5471 5470 5475 5481 5490 5494 5496 5499 5499 5504 5508 5509 5509 5512 5517 5522 5522 5524 5527 5530 5538 5551 5546 5553 5551 5560 5583 5585 5584 5588
5407 5412 5418 5428 5440 5446 5445 5454 5453 5447 5444 5444 5454 5456 5457 5461 5467 5473 5475 5475 5475 5477 5478 5482 5483 5486 5489 5494 5500 5504 5506 5505 5512 5516 5521 5519 5524 5530 5535 5541 5546 5553 5564
5397 5399 5406 5414 5422 5423 5430 5437 5433 5427 5435 5435 5434 5435 5437 5442 5448 5453 5453 5453 5452 5452 5455 5457 5463 5464 5466 5471 5478 5481 5484 5486 5487 5493 5497 5500 5506 5512 5513 5528 5528 5534 5543
5381 5386 5394 5401 5404 5411 5413 5411 5408 5415 5418 5416 5414 5414 5418 5423 5427 5428 5427 5431 5433 5434 5438 5442 5443 5445 5445 5452 5456 5458 5458 5459 5463 5471 5474 5478 5480 5489 5492 5499 5499 5509 5517
5375 5382 5389 5398 5398 5395 5395 5396 5400 5398 5395 5396 5396 5398 5398 5403 5409 5411 5410 5413 5417 5415 5418 5422 5425 5427 5427 5431 5433 5434 5434 5437 5442 5443 5450 5455 5456 5462 5467 5474 5475 5479 5489
5374 5378 5380 5381 5381 5380 5378 5375 5372 5376 5377 5379 5380 5381 5382 5382 5385 5387 5389 5390 5395 5398 5398 5406 5409 5410 5414 5412 5415 5416 5418 5420 5421 5422 5424 5428 5434 5436 5440 5448 5454 5457 5460
5368 5369 5368 5367 5365 5364 5361 5359 5359 5358 5357 5357 5359 5359 5361 5362 5359 5359 5365 5373 5376 5380 5382 5383 5386 5389 5392 5393 5393 5394 5397 5398 5398 5402 5404 5407 5410 5413 5419 5428 5431 5434 5437
5348 5346 5346 5346 5345 5341 5341 5339 5338 5337 5335 5333 5330 5327 5328 5330 5334 5341 5345 5349 5353 5355 5356 5356 5361 5364 5368 5369 5369 5370 5372 5373 5377 5383 5384 5384 5389 5392 5396 5404 5408 5412 5415
5339 5337 5336 5336 5334 5334 5332 5328 5324 5320 5318 5314 5312 5312 5310 5310 5312 5313 5315 5318 5321 5325 5327 5329 5332 5335 5336 5337 5339 5341 5344 5350 5353 5356 5358 5360 5362 5368 5374 5380 5385 5387 5392
5329 5328 5326 5324 5322 5321 5318 5315 5314 5310 5307 5305 5300 5294 5290 5293 5298 5299 5300 5304 5304 5304 5302 5297 5295 5296 5300 5300 5303 5306 5310 5316 5322 5327 5330 5335 5340 5344 5350 5359 5363 5365 5369
5317 5319 5318 5316 5314 5312 5310 5307 5302 5300 5298 5294 5291 5286 5282 5282 5284 5282 5274 5271 5271 5270 5267 5263 5256 5258 5262 5265 5270 5276 5282 5285 5292 5298 5302 5308 5314 5321 5327 5333 5340 5344 5347
5303 5303 5301 5299 5296 5293 5289 5286 5280 5274 5269 5267 5267 5262 5257 5255 5255 5251 5239 5233 5228 5226 5225 5228 5226 5226 5228 5231 5235 5241 5249 5253 5259 5266 5272 5279 5286 5293 5298 5306 5313 5316 5321
5293 5289 5284 5282 5280 5276 5271 5265 5256 5248 5241 5236 5234 5230 5225 5221 5217 5214 5208 5197 5191 5188 5186 5188 5191 5189 5190 5195 5200 5204 5212 5215 5222 5230 5238 5247 5257 5265 5267 5276 5282 5285 5291
5280 5278 5275 5272 5268 5261 5253 5245 5239 5232 5226 5218 5212 5208 5203 5195 5183 5175 5171 5162 5153 5149 5147 5147 5150 5151 5151 5156 5162 5168 5175 5179 5187 5195 5202 5211 5225 5234 5240 5245 5250 5255 5261
5267 5264 5259 5255 5247 5240 5231 5224 5217 5211 5203 5196 5188 5182 5176 5169 5161 5148 5141 5134 5128 5123 5117 5115 5114 5114 5114 5118 5121 5125 5133 5138 5147 5156 5166 5177 5188 5199 5210 5216 5221 5226 5232
5251 5246 5239 5231 5224 5214 5207 5201 5191 5182 5174 5165 5155 5148 5139 5131 5127 5121 5115 5111 5107 5104 5102 5098 5093 5092 5092 5092 5091 5092 5096 5099 5107 5118 5128 5138 5150 5164 5176 5181 5187 5192 5200
5233 5225 5218 5211 5203 5195 5185 5176 5166 5154 5144 5133 5124 5117 5110 5103 5099 5096 5093 5090 5086 5083 5081 5081 5078 5074 5076 5074 5073 5073 5073 5076 5080 5086 5093 5102 5113 5128 5138 5145 5151 5157 5164
5216 5207 5201 5193 5183 5174 5161 5150 5141 5131 5121 5111 5101 5095 5088 5083 5078 5076 5072 5071 5068 5065 5062 5063 5062 5059 5058 5057 5058 5058 5059 5061 5064 5068 5073 5078 5086 5097 5105 5113 5119 5123 5130
5196 5187 5178 5170 5161 5151 5142 5130 5118 5108 5100 5093 5084 5077 5072 5066 5061 5058 5055 5054 5051 5048 5046 5045 5045 5044 5043 5041 5043 5044 5045 5047 5051 5054 5059 5064 5069 5075 5080 5086 5092 5098 5102
5175 5166 5156 5147 5137 5125 5114 5104 5095 5087 5080 5072 5065 5059 5055 5050 5046 5042 5038 5036 5033 5032 5029 5029 5030 5030 5029 5028 5028 5029 5031 5034 5038 5041 5045 5048 5052 5056 5061 5066 5073 5076 5080